Year,Month,Day,Hour,Minute,Value (Times are PST for temperature in C)
2009,07,21,00,00,19.20
2009,07,21,00,01,19.20
2009,07,21,00,02,19.20
2009,07,21,00,03,19.20
2009,07,21,00,04,19.20
2009,07,21,00,05,19.10
2009,07,21,00,06,19.10
2009,07,21,00,07,19.10
2009,07,21,00,08,19.00
2009,07,21,00,09,19.00
2009,07,21,00,10,18.90
2009,07,21,00,11,18.90
2009,07,21,00,12,18.90
2009,07,21,00,13,18.90
2009,07,21,00,14,18.90
2009,07,21,00,15,18.90
2009,07,21,00,16,18.90
2009,07,21,00,17,18.90
2009,07,21,00,18,18.90
2009,07,21,00,19,18.90
2009,07,21,00,20,18.80
2009,07,21,00,21,18.80
2009,07,21,00,22,18.70
2009,07,21,00,23,18.70
2009,07,21,00,24,18.50
2009,07,21,00,25,18.40
2009,07,21,00,26,18.40
2009,07,21,00,27,18.30
2009,07,21,00,28,18.20
2009,07,21,00,29,18.10
2009,07,21,00,30,18.00
2009,07,21,00,31,18.00
2009,07,21,00,32,17.90
2009,07,21,00,33,17.90
2009,07,21,00,34,17.90
2009,07,21,00,35,17.90
2009,07,21,00,36,17.90
2009,07,21,00,37,17.90
2009,07,21,00,38,18.00
2009,07,21,00,39,18.10
2009,07,21,00,40,18.20
2009,07,21,00,41,18.20
2009,07,21,00,42,18.30
2009,07,21,00,43,18.30
2009,07,21,00,44,18.30
2009,07,21,00,45,18.40
2009,07,21,00,46,18.40
2009,07,21,00,47,18.40
2009,07,21,00,48,18.40
2009,07,21,00,49,18.40
2009,07,21,00,50,18.40
2009,07,21,00,51,18.40
2009,07,21,00,52,18.40
2009,07,21,00,53,18.40
2009,07,21,00,54,18.40
2009,07,21,00,55,18.40
2009,07,21,00,56,18.30
2009,07,21,00,57,18.30
2009,07,21,00,58,18.30
2009,07,21,00,59,18.30
2009,07,21,01,00,18.30
2009,07,21,01,01,18.30
2009,07,21,01,02,18.20
2009,07,21,01,03,18.20
2009,07,21,01,04,18.20
2009,07,21,01,05,18.10
2009,07,21,01,06,18.10
2009,07,21,01,07,18.00
2009,07,21,01,08,17.90
2009,07,21,01,09,17.80
2009,07,21,01,10,17.70
2009,07,21,01,11,17.60
2009,07,21,01,12,17.50
2009,07,21,01,13,17.40
2009,07,21,01,14,17.30
2009,07,21,01,15,17.20
2009,07,21,01,16,17.10
2009,07,21,01,17,16.90
2009,07,21,01,18,16.80
2009,07,21,01,19,16.80
2009,07,21,01,20,16.70
2009,07,21,01,21,16.70
2009,07,21,01,22,16.70
2009,07,21,01,23,16.70
2009,07,21,01,24,16.70
2009,07,21,01,25,16.60
2009,07,21,01,26,16.60
2009,07,21,01,27,16.50
2009,07,21,01,28,16.40
2009,07,21,01,29,16.40
2009,07,21,01,30,16.30
2009,07,21,01,31,16.20
2009,07,21,01,32,16.10
2009,07,21,01,33,15.90
2009,07,21,01,34,15.80
2009,07,21,01,35,15.80
2009,07,21,01,36,15.70
2009,07,21,01,37,15.70
2009,07,21,01,38,15.70
2009,07,21,01,39,15.60
2009,07,21,01,40,15.60
2009,07,21,01,41,15.60
2009,07,21,01,42,15.60
2009,07,21,01,43,15.60
2009,07,21,01,44,15.60
2009,07,21,01,45,15.60
2009,07,21,01,46,15.60
2009,07,21,01,47,15.60
2009,07,21,01,48,15.60
2009,07,21,01,49,15.70
2009,07,21,01,50,15.70
2009,07,21,01,51,15.70
2009,07,21,01,52,15.70
2009,07,21,01,53,15.70
2009,07,21,01,54,15.70
2009,07,21,01,55,15.60
2009,07,21,01,56,15.50
2009,07,21,01,57,15.50
2009,07,21,01,58,15.40
2009,07,21,01,59,15.40
2009,07,21,02,00,15.30
2009,07,21,02,01,15.20
2009,07,21,02,02,15.20
2009,07,21,02,03,15.10
2009,07,21,02,04,15.10
2009,07,21,02,05,15.00
2009,07,21,02,06,15.00
2009,07,21,02,07,15.00
2009,07,21,02,08,15.00
2009,07,21,02,09,15.00
2009,07,21,02,10,15.00
2009,07,21,02,11,15.00
2009,07,21,02,12,15.00
2009,07,21,02,13,15.00
2009,07,21,02,14,15.00
2009,07,21,02,15,15.00
2009,07,21,02,16,14.90
2009,07,21,02,17,14.90
2009,07,21,02,18,14.90
2009,07,21,02,19,14.90
2009,07,21,02,20,14.90
2009,07,21,02,21,14.90
2009,07,21,02,22,14.80
2009,07,21,02,23,14.80
2009,07,21,02,24,14.90
2009,07,21,02,25,14.90
2009,07,21,02,26,14.80
2009,07,21,02,27,14.80
2009,07,21,02,28,14.80
2009,07,21,02,29,14.70
2009,07,21,02,30,14.70
2009,07,21,02,31,14.60
2009,07,21,02,32,14.60
2009,07,21,02,33,14.50
2009,07,21,02,34,14.40
2009,07,21,02,35,14.40
2009,07,21,02,36,14.40
2009,07,21,02,37,14.40
2009,07,21,02,38,14.30
2009,07,21,02,39,14.30
2009,07,21,02,40,14.30
2009,07,21,02,41,14.30
2009,07,21,02,42,14.20
2009,07,21,02,43,14.20
2009,07,21,02,44,14.10
2009,07,21,02,45,14.10
2009,07,21,02,46,14.00
2009,07,21,02,47,13.90
2009,07,21,02,48,13.90
2009,07,21,02,49,13.90
2009,07,21,02,50,13.80
2009,07,21,02,51,13.80
2009,07,21,02,52,13.80
2009,07,21,02,53,13.80
2009,07,21,02,54,13.70
2009,07,21,02,55,13.70
2009,07,21,02,56,13.70
2009,07,21,02,57,13.60
2009,07,21,02,58,13.60
2009,07,21,02,59,13.60
2009,07,21,03,00,13.60
2009,07,21,03,01,13.60
2009,07,21,03,02,13.60
2009,07,21,03,03,13.60
2009,07,21,03,04,13.60
2009,07,21,03,05,13.60
2009,07,21,03,06,13.60
2009,07,21,03,07,13.70
2009,07,21,03,08,13.70
2009,07,21,03,09,13.70
2009,07,21,03,10,13.70
2009,07,21,03,11,13.60
2009,07,21,03,12,13.60
2009,07,21,03,13,13.50
2009,07,21,03,14,13.50
2009,07,21,03,15,13.40
2009,07,21,03,16,13.30
2009,07,21,03,17,13.30
2009,07,21,03,18,13.30
2009,07,21,03,19,13.30
2009,07,21,03,20,13.30
2009,07,21,03,21,13.30
2009,07,21,03,22,13.30
2009,07,21,03,23,13.30
2009,07,21,03,24,13.30
2009,07,21,03,25,13.30
2009,07,21,03,26,13.20
2009,07,21,03,27,13.30
2009,07,21,03,28,13.30
2009,07,21,03,29,13.40
2009,07,21,03,30,13.40
2009,07,21,03,31,13.50
2009,07,21,03,32,13.50
2009,07,21,03,33,13.60
2009,07,21,03,34,13.60
2009,07,21,03,35,13.70
2009,07,21,03,36,13.80
2009,07,21,03,37,13.80
2009,07,21,03,38,13.80
2009,07,21,03,39,13.80
2009,07,21,03,40,13.80
2009,07,21,03,41,13.80
2009,07,21,03,42,13.80
2009,07,21,03,43,13.70
2009,07,21,03,44,13.70
2009,07,21,03,45,13.60
2009,07,21,03,46,13.60
2009,07,21,03,47,13.60
2009,07,21,03,48,13.50
2009,07,21,03,49,13.50
2009,07,21,03,50,13.50
2009,07,21,03,51,13.40
2009,07,21,03,52,13.40
2009,07,21,03,53,13.40
2009,07,21,03,54,13.40
2009,07,21,03,55,13.40
2009,07,21,03,56,13.40
2009,07,21,03,57,13.30
2009,07,21,03,58,13.30
2009,07,21,03,59,13.30
2009,07,21,04,00,13.40
2009,07,21,04,01,13.40
2009,07,21,04,02,13.50
2009,07,21,04,03,13.60
2009,07,21,04,04,13.60
2009,07,21,04,05,13.70
2009,07,21,04,06,13.70
2009,07,21,04,07,13.70
2009,07,21,04,08,13.80
2009,07,21,04,09,13.80
2009,07,21,04,10,13.90
2009,07,21,04,11,13.90
2009,07,21,04,12,13.90
2009,07,21,04,13,14.00
2009,07,21,04,14,14.10
2009,07,21,04,15,14.20
2009,07,21,04,16,14.40
2009,07,21,04,17,14.50
2009,07,21,04,18,14.70
2009,07,21,04,19,14.80
2009,07,21,04,20,14.90
2009,07,21,04,21,15.00
2009,07,21,04,22,15.00
2009,07,21,04,23,15.00
2009,07,21,04,24,15.00
2009,07,21,04,25,15.00
2009,07,21,04,26,15.00
2009,07,21,04,27,15.00
2009,07,21,04,28,14.80
2009,07,21,04,29,14.70
2009,07,21,04,30,14.60
2009,07,21,04,31,14.50
2009,07,21,04,32,14.50
2009,07,21,04,33,14.40
2009,07,21,04,34,14.30
2009,07,21,04,35,14.20
2009,07,21,04,36,14.20
2009,07,21,04,37,14.10
2009,07,21,04,38,14.00
2009,07,21,04,39,13.90
2009,07,21,04,40,13.80
2009,07,21,04,41,13.80
2009,07,21,04,42,13.70
2009,07,21,04,43,13.70
2009,07,21,04,44,13.60
2009,07,21,04,45,13.50
2009,07,21,04,46,13.50
2009,07,21,04,47,13.40
2009,07,21,04,48,13.30
2009,07,21,04,49,13.30
2009,07,21,04,50,13.30
2009,07,21,04,51,13.20
2009,07,21,04,52,13.20
2009,07,21,04,53,13.10
2009,07,21,04,54,13.10
2009,07,21,04,55,13.10
2009,07,21,04,56,13.00
2009,07,21,04,57,12.90
2009,07,21,04,58,12.90
2009,07,21,04,59,12.80
2009,07,21,05,00,12.80
2009,07,21,05,01,12.80
2009,07,21,05,02,12.80
2009,07,21,05,03,12.80
2009,07,21,05,04,12.80
2009,07,21,05,05,12.70
2009,07,21,05,06,12.70
2009,07,21,05,07,12.70
2009,07,21,05,08,12.60
2009,07,21,05,09,12.60
2009,07,21,05,10,12.60
2009,07,21,05,11,12.60
2009,07,21,05,12,12.50
2009,07,21,05,13,12.40
2009,07,21,05,14,12.40
2009,07,21,05,15,12.40
2009,07,21,05,16,12.40
2009,07,21,05,17,12.50
2009,07,21,05,18,12.50
2009,07,21,05,19,12.60
2009,07,21,05,20,12.60
2009,07,21,05,21,12.60
2009,07,21,05,22,12.50
2009,07,21,05,23,12.50
2009,07,21,05,24,12.50
2009,07,21,05,25,12.50
2009,07,21,05,26,12.50
2009,07,21,05,27,12.60
2009,07,21,05,28,12.50
2009,07,21,05,29,12.50
2009,07,21,05,30,12.40
2009,07,21,05,31,12.40
2009,07,21,05,32,12.40
2009,07,21,05,33,12.40
2009,07,21,05,34,12.40
2009,07,21,05,35,12.40
2009,07,21,05,36,12.40
2009,07,21,05,37,12.40
2009,07,21,05,38,12.40
2009,07,21,05,39,12.40
2009,07,21,05,40,12.40
2009,07,21,05,41,12.40
2009,07,21,05,42,12.50
2009,07,21,05,43,12.50
2009,07,21,05,44,12.50
2009,07,21,05,45,12.60
2009,07,21,05,46,12.60
2009,07,21,05,47,12.70
2009,07,21,05,48,12.70
2009,07,21,05,49,12.70
2009,07,21,05,50,12.70
2009,07,21,05,51,12.70
2009,07,21,05,52,12.70
2009,07,21,05,53,12.70
2009,07,21,05,54,12.70
2009,07,21,05,55,12.70
2009,07,21,05,56,12.70
2009,07,21,05,57,12.70
2009,07,21,05,58,12.70
2009,07,21,05,59,12.70
2009,07,21,06,00,12.70
2009,07,21,06,01,12.80
2009,07,21,06,02,12.80
2009,07,21,06,03,12.80
2009,07,21,06,04,12.80
2009,07,21,06,05,12.90
2009,07,21,06,06,12.90
2009,07,21,06,07,13.00
2009,07,21,06,08,13.10
2009,07,21,06,09,13.20
2009,07,21,06,10,13.30
2009,07,21,06,11,13.30
2009,07,21,06,12,13.40
2009,07,21,06,13,13.50
2009,07,21,06,14,13.50
2009,07,21,06,15,13.50
2009,07,21,06,16,13.50
2009,07,21,06,17,13.50
2009,07,21,06,18,13.50
2009,07,21,06,19,13.40
2009,07,21,06,20,13.30
2009,07,21,06,21,13.20
2009,07,21,06,22,13.20
2009,07,21,06,23,13.20
2009,07,21,06,24,13.10
2009,07,21,06,25,13.00
2009,07,21,06,26,13.00
2009,07,21,06,27,12.90
2009,07,21,06,28,12.90
2009,07,21,06,29,12.90
2009,07,21,06,30,12.80
2009,07,21,06,31,12.80
2009,07,21,06,32,12.80
2009,07,21,06,33,12.80
2009,07,21,06,34,12.80
2009,07,21,06,35,12.80
2009,07,21,06,36,12.80
2009,07,21,06,37,12.90
2009,07,21,06,38,13.00
2009,07,21,06,39,13.00
2009,07,21,06,40,13.10
2009,07,21,06,41,13.10
2009,07,21,06,42,13.20
2009,07,21,06,43,13.30
2009,07,21,06,44,13.30
2009,07,21,06,45,13.40
2009,07,21,06,46,13.40
2009,07,21,06,47,13.40
2009,07,21,06,48,13.40
2009,07,21,06,49,13.50
2009,07,21,06,50,13.60
2009,07,21,06,51,13.60
2009,07,21,06,52,13.60
2009,07,21,06,53,13.80
2009,07,21,06,54,13.80
2009,07,21,06,55,13.90
2009,07,21,06,56,14.00
2009,07,21,06,57,14.10
2009,07,21,06,58,14.20
2009,07,21,06,59,14.20
2009,07,21,07,00,14.30
2009,07,21,07,01,14.40
2009,07,21,07,02,14.50
2009,07,21,07,03,14.60
2009,07,21,07,04,14.70
2009,07,21,07,05,14.70
2009,07,21,07,06,14.80
2009,07,21,07,07,15.00
2009,07,21,07,08,15.10
2009,07,21,07,09,15.40
2009,07,21,07,10,15.60
2009,07,21,07,11,15.70
2009,07,21,07,12,15.80
2009,07,21,07,13,15.90
2009,07,21,07,14,16.10
2009,07,21,07,15,16.20
2009,07,21,07,16,16.20
2009,07,21,07,17,16.30
2009,07,21,07,18,16.40
2009,07,21,07,19,16.50
2009,07,21,07,20,16.60
2009,07,21,07,21,16.60
2009,07,21,07,22,16.60
2009,07,21,07,23,16.60
2009,07,21,07,24,16.60
2009,07,21,07,25,16.70
2009,07,21,07,26,16.70
2009,07,21,07,27,16.70
2009,07,21,07,28,16.80
2009,07,21,07,29,16.80
2009,07,21,07,30,16.80
2009,07,21,07,31,16.80
2009,07,21,07,32,16.90
2009,07,21,07,33,16.80
2009,07,21,07,34,16.80
2009,07,21,07,35,16.80
2009,07,21,07,36,16.90
2009,07,21,07,37,16.90
2009,07,21,07,38,17.00
2009,07,21,07,39,17.00
2009,07,21,07,40,17.10
2009,07,21,07,41,17.10
2009,07,21,07,42,17.10
2009,07,21,07,43,17.10
2009,07,21,07,44,17.10
2009,07,21,07,45,17.20
2009,07,21,07,46,17.20
2009,07,21,07,47,17.30
2009,07,21,07,48,17.30
2009,07,21,07,49,17.30
2009,07,21,07,50,17.30
2009,07,21,07,51,17.40
2009,07,21,07,52,17.40
2009,07,21,07,53,17.40
2009,07,21,07,54,17.40
2009,07,21,07,55,17.40
2009,07,21,07,56,17.30
2009,07,21,07,57,17.30
2009,07,21,07,58,17.20
2009,07,21,07,59,17.20
2009,07,21,08,00,17.10
2009,07,21,08,01,17.10
2009,07,21,08,02,17.10
2009,07,21,08,03,17.10
2009,07,21,08,04,17.10
2009,07,21,08,05,17.10
2009,07,21,08,06,17.10
2009,07,21,08,07,17.20
2009,07,21,08,08,17.20
2009,07,21,08,09,17.30
2009,07,21,08,10,17.40
2009,07,21,08,11,17.40
2009,07,21,08,12,17.50
2009,07,21,08,13,17.60
2009,07,21,08,14,17.60
2009,07,21,08,15,17.60
2009,07,21,08,16,17.70
2009,07,21,08,17,17.70
2009,07,21,08,18,17.70
2009,07,21,08,19,17.80
2009,07,21,08,20,17.80
2009,07,21,08,21,17.90
2009,07,21,08,22,17.90
2009,07,21,08,23,18.00
2009,07,21,08,24,18.00
2009,07,21,08,25,18.10
2009,07,21,08,26,18.10
2009,07,21,08,27,18.20
2009,07,21,08,28,18.20
2009,07,21,08,29,18.30
2009,07,21,08,30,18.30
2009,07,21,08,31,18.30
2009,07,21,08,32,18.30
2009,07,21,08,33,18.30
2009,07,21,08,34,18.20
2009,07,21,08,35,18.20
2009,07,21,08,36,18.20
2009,07,21,08,37,18.20
2009,07,21,08,38,18.20
2009,07,21,08,39,18.20
2009,07,21,08,40,18.20
2009,07,21,08,41,18.20
2009,07,21,08,42,18.20
2009,07,21,08,43,18.20
2009,07,21,08,44,18.30
2009,07,21,08,45,18.30
2009,07,21,08,46,18.20
2009,07,21,08,47,18.20
2009,07,21,08,48,18.10
2009,07,21,08,49,18.10
2009,07,21,08,50,18.10
2009,07,21,08,51,18.10
2009,07,21,08,52,18.20
2009,07,21,08,53,18.20
2009,07,21,08,54,18.30
2009,07,21,08,55,18.30
2009,07,21,08,56,18.20
2009,07,21,08,57,18.20
2009,07,21,08,58,18.20
2009,07,21,08,59,18.10
2009,07,21,09,00,18.00
2009,07,21,09,01,17.90
2009,07,21,09,02,17.80
2009,07,21,09,03,17.70
2009,07,21,09,04,17.70
2009,07,21,09,05,17.70
2009,07,21,09,06,17.70
2009,07,21,09,07,17.70
2009,07,21,09,08,17.70
2009,07,21,09,09,17.80
2009,07,21,09,10,17.80
2009,07,21,09,11,17.80
2009,07,21,09,12,17.90
2009,07,21,09,13,18.00
2009,07,21,09,14,18.10
2009,07,21,09,15,18.00
2009,07,21,09,16,18.00
2009,07,21,09,17,18.00
2009,07,21,09,18,18.00
2009,07,21,09,19,18.00
2009,07,21,09,20,18.00
2009,07,21,09,21,18.10
2009,07,21,09,22,18.20
2009,07,21,09,23,18.30
2009,07,21,09,24,18.30
2009,07,21,09,25,18.20
2009,07,21,09,26,18.20
2009,07,21,09,27,18.20
2009,07,21,09,28,18.10
2009,07,21,09,29,18.10
2009,07,21,09,30,18.10
2009,07,21,09,31,18.10
2009,07,21,09,32,18.20
2009,07,21,09,33,18.20
2009,07,21,09,34,18.20
2009,07,21,09,35,18.20
2009,07,21,09,36,18.30
2009,07,21,09,37,18.40
2009,07,21,09,38,18.50
2009,07,21,09,39,18.60
2009,07,21,09,40,18.70
2009,07,21,09,41,18.70
2009,07,21,09,42,18.80
2009,07,21,09,43,18.80
2009,07,21,09,44,18.70
2009,07,21,09,45,18.80
2009,07,21,09,46,18.80
2009,07,21,09,47,18.90
2009,07,21,09,48,19.00
2009,07,21,09,49,19.00
2009,07,21,09,50,19.00
2009,07,21,09,51,19.00
2009,07,21,09,52,19.00
2009,07,21,09,53,18.90
2009,07,21,09,54,18.90
2009,07,21,09,55,18.80
2009,07,21,09,56,18.80
2009,07,21,09,57,18.80
2009,07,21,09,58,18.70
2009,07,21,09,59,18.70
2009,07,21,10,00,18.60
2009,07,21,10,01,18.60
2009,07,21,10,02,18.60
2009,07,21,10,03,18.50
2009,07,21,10,04,18.50
2009,07,21,10,05,18.50
2009,07,21,10,06,18.40
2009,07,21,10,07,18.40
2009,07,21,10,08,18.30
2009,07,21,10,09,18.30
2009,07,21,10,10,18.30
2009,07,21,10,11,18.30
2009,07,21,10,12,18.30
2009,07,21,10,13,18.30
2009,07,21,10,14,18.30
2009,07,21,10,15,18.20
2009,07,21,10,16,18.20
2009,07,21,10,17,18.10
2009,07,21,10,18,18.10
2009,07,21,10,19,18.10
2009,07,21,10,20,18.10
2009,07,21,10,21,18.10
2009,07,21,10,22,18.20
2009,07,21,10,23,18.20
2009,07,21,10,24,18.30
2009,07,21,10,25,18.30
2009,07,21,10,26,18.30
2009,07,21,10,27,18.40
2009,07,21,10,28,18.40
2009,07,21,10,29,18.40
2009,07,21,10,30,18.30
2009,07,21,10,31,18.30
2009,07,21,10,32,18.30
2009,07,21,10,33,18.20
2009,07,21,10,34,18.10
2009,07,21,10,35,18.10
2009,07,21,10,36,18.10
2009,07,21,10,37,18.10
2009,07,21,10,38,18.10
2009,07,21,10,39,18.10
2009,07,21,10,40,18.10
2009,07,21,10,41,18.20
2009,07,21,10,42,18.20
2009,07,21,10,43,18.30
2009,07,21,10,44,18.30
2009,07,21,10,45,18.30
2009,07,21,10,46,18.30
2009,07,21,10,47,18.30
2009,07,21,10,48,18.40
2009,07,21,10,49,18.50
2009,07,21,10,50,18.50
2009,07,21,10,51,18.60
2009,07,21,10,52,18.60
2009,07,21,10,53,18.60
2009,07,21,10,54,18.70
2009,07,21,10,55,18.80
2009,07,21,10,56,18.80
2009,07,21,10,57,18.80
2009,07,21,10,58,18.90
2009,07,21,10,59,18.90
2009,07,21,11,00,18.90
2009,07,21,11,01,18.90
2009,07,21,11,02,19.00
2009,07,21,11,03,19.10
2009,07,21,11,04,19.00
2009,07,21,11,05,19.00
2009,07,21,11,06,18.90
2009,07,21,11,07,18.90
2009,07,21,11,08,18.90
2009,07,21,11,09,19.00
2009,07,21,11,10,19.00
2009,07,21,11,11,19.00
2009,07,21,11,12,19.10
2009,07,21,11,13,19.10
2009,07,21,11,14,19.10
2009,07,21,11,15,19.10
2009,07,21,11,16,19.10
2009,07,21,11,17,19.20
2009,07,21,11,18,19.20
2009,07,21,11,19,19.30
2009,07,21,11,20,19.40
2009,07,21,11,21,19.40
2009,07,21,11,22,19.40
2009,07,21,11,23,19.40
2009,07,21,11,24,19.40
2009,07,21,11,25,19.40
2009,07,21,11,26,19.40
2009,07,21,11,27,19.50
2009,07,21,11,28,19.60
2009,07,21,11,29,19.70
2009,07,21,11,30,19.70
2009,07,21,11,31,19.80
2009,07,21,11,32,19.80
2009,07,21,11,33,19.80
2009,07,21,11,34,19.80
2009,07,21,11,35,19.70
2009,07,21,11,36,19.60
2009,07,21,11,37,19.50
2009,07,21,11,38,19.30
2009,07,21,11,39,19.30
2009,07,21,11,40,19.20
2009,07,21,11,41,19.20
2009,07,21,11,42,19.20
2009,07,21,11,43,19.20
2009,07,21,11,44,19.20
2009,07,21,11,45,19.10
2009,07,21,11,46,19.10
2009,07,21,11,47,19.00
2009,07,21,11,48,19.00
2009,07,21,11,49,19.00
2009,07,21,11,50,19.00
2009,07,21,11,51,19.00
2009,07,21,11,52,19.00
2009,07,21,11,53,19.10
2009,07,21,11,54,19.10
2009,07,21,11,55,19.10
2009,07,21,11,56,19.00
2009,07,21,11,57,18.90
2009,07,21,11,58,18.90
2009,07,21,11,59,18.90
2009,07,21,12,00,18.90
2009,07,21,12,01,18.80
2009,07,21,12,02,18.70
2009,07,21,12,03,18.50
2009,07,21,12,04,18.50
2009,07,21,12,05,18.40
2009,07,21,12,06,18.40
2009,07,21,12,07,18.40
2009,07,21,12,08,18.50
2009,07,21,12,09,18.40
2009,07,21,12,10,18.40
2009,07,21,12,11,18.40
2009,07,21,12,12,18.50
2009,07,21,12,13,18.50
2009,07,21,12,14,18.50
2009,07,21,12,15,18.50
2009,07,21,12,16,18.40
2009,07,21,12,17,18.40
2009,07,21,12,18,18.40
2009,07,21,12,19,18.50
2009,07,21,12,20,18.50
2009,07,21,12,21,18.50
2009,07,21,12,22,18.50
2009,07,21,12,23,18.60
2009,07,21,12,24,18.50
2009,07,21,12,25,18.50
2009,07,21,12,26,18.50
2009,07,21,12,27,18.60
2009,07,21,12,28,18.70
2009,07,21,12,29,18.80
2009,07,21,12,30,18.80
2009,07,21,12,31,18.90
2009,07,21,12,32,18.90
2009,07,21,12,33,19.00
2009,07,21,12,34,19.00
2009,07,21,12,35,18.90
2009,07,21,12,36,19.00
2009,07,21,12,37,19.10
2009,07,21,12,38,19.20
2009,07,21,12,39,19.20
2009,07,21,12,40,19.20
2009,07,21,12,41,19.20
2009,07,21,12,42,19.20
2009,07,21,12,43,19.20
2009,07,21,12,44,19.20
2009,07,21,12,45,19.30
2009,07,21,12,46,19.30
2009,07,21,12,47,19.30
2009,07,21,12,48,19.30
2009,07,21,12,49,19.30
2009,07,21,12,50,19.30
2009,07,21,12,51,19.30
2009,07,21,12,52,19.30
2009,07,21,12,53,19.30
2009,07,21,12,54,19.30
2009,07,21,12,55,19.20
2009,07,21,12,56,19.20
2009,07,21,12,57,19.30
2009,07,21,12,58,19.30
2009,07,21,12,59,19.40
2009,07,21,13,00,19.40
2009,07,21,13,01,19.40
2009,07,21,13,02,19.50
2009,07,21,13,03,19.50
2009,07,21,13,04,19.60
2009,07,21,13,05,19.60
2009,07,21,13,06,19.70
2009,07,21,13,07,19.70
2009,07,21,13,08,19.70
2009,07,21,13,09,19.60
2009,07,21,13,10,19.60
2009,07,21,13,11,19.60
2009,07,21,13,12,19.70
2009,07,21,13,13,19.70
2009,07,21,13,14,19.80
2009,07,21,13,15,19.80
2009,07,21,13,16,19.90
2009,07,21,13,17,20.00
2009,07,21,13,18,20.10
2009,07,21,13,19,20.10
2009,07,21,13,20,20.10
2009,07,21,13,21,20.20
2009,07,21,13,22,20.20
2009,07,21,13,23,20.20
2009,07,21,13,24,20.30
2009,07,21,13,25,20.40
2009,07,21,13,26,20.60
2009,07,21,13,27,20.70
2009,07,21,13,28,20.90
2009,07,21,13,29,21.00
2009,07,21,13,30,21.20
2009,07,21,13,31,21.30
2009,07,21,13,32,21.40
2009,07,21,13,33,21.30
2009,07,21,13,34,21.30
2009,07,21,13,35,21.30
2009,07,21,13,36,21.30
2009,07,21,13,37,21.30
2009,07,21,13,38,21.30
2009,07,21,13,39,21.30
2009,07,21,13,40,21.30
2009,07,21,13,41,21.40
2009,07,21,13,42,21.40
2009,07,21,13,43,21.40
2009,07,21,13,44,21.50
2009,07,21,13,45,21.60
2009,07,21,13,46,21.60
2009,07,21,13,47,21.70
2009,07,21,13,48,21.70
2009,07,21,13,49,21.80
2009,07,21,13,50,21.80
2009,07,21,13,51,21.80
2009,07,21,13,52,21.80
2009,07,21,13,53,21.70
2009,07,21,13,54,21.60
2009,07,21,13,55,21.60
2009,07,21,13,56,21.50
2009,07,21,13,57,21.50
2009,07,21,13,58,21.50
2009,07,21,13,59,21.50
2009,07,21,14,00,21.60
2009,07,21,14,01,21.70
2009,07,21,14,02,21.80
2009,07,21,14,03,21.80
2009,07,21,14,04,21.80
2009,07,21,14,05,21.80
2009,07,21,14,06,21.80
2009,07,21,14,07,21.80
2009,07,21,14,08,21.90
2009,07,21,14,09,22.00
2009,07,21,14,10,22.10
2009,07,21,14,11,22.10
2009,07,21,14,12,22.00
2009,07,21,14,13,21.90
2009,07,21,14,14,21.80
2009,07,21,14,15,21.80
2009,07,21,14,16,21.80
2009,07,21,14,17,21.70
2009,07,21,14,18,21.70
2009,07,21,14,19,21.70
2009,07,21,14,20,21.80
2009,07,21,14,21,21.90
2009,07,21,14,22,22.00
2009,07,21,14,23,22.00
2009,07,21,14,24,22.00
2009,07,21,14,25,22.00
2009,07,21,14,26,22.00
2009,07,21,14,27,22.00
2009,07,21,14,28,22.00
2009,07,21,14,29,22.00
2009,07,21,14,30,21.90
2009,07,21,14,31,21.90
2009,07,21,14,32,21.90
2009,07,21,14,33,21.90
2009,07,21,14,34,21.80
2009,07,21,14,35,21.80
2009,07,21,14,36,21.80
2009,07,21,14,37,21.80
2009,07,21,14,38,21.80
2009,07,21,14,39,21.80
2009,07,21,14,40,21.90
2009,07,21,14,41,22.10
2009,07,21,14,42,22.20
2009,07,21,14,43,22.20
2009,07,21,14,44,22.20
2009,07,21,14,45,22.20
2009,07,21,14,46,22.20
2009,07,21,14,47,22.30
2009,07,21,14,48,22.30
2009,07,21,14,49,22.30
2009,07,21,14,50,22.40
2009,07,21,14,51,22.40
2009,07,21,14,52,22.40
2009,07,21,14,53,22.40
2009,07,21,14,54,22.40
2009,07,21,14,55,22.50
2009,07,21,14,56,22.60
2009,07,21,14,57,22.70
2009,07,21,14,58,22.70
2009,07,21,14,59,22.70
2009,07,21,15,00,22.70
2009,07,21,15,01,22.70
2009,07,21,15,02,22.80
2009,07,21,15,03,22.80
2009,07,21,15,04,22.80
2009,07,21,15,05,22.80
2009,07,21,15,06,22.70
2009,07,21,15,07,22.60
2009,07,21,15,08,22.60
2009,07,21,15,09,22.60
2009,07,21,15,10,22.60
2009,07,21,15,11,22.70
2009,07,21,15,12,22.80
2009,07,21,15,13,22.90
2009,07,21,15,14,22.80
2009,07,21,15,15,22.80
2009,07,21,15,16,22.70
2009,07,21,15,17,22.70
2009,07,21,15,18,22.70
2009,07,21,15,19,22.80
2009,07,21,15,20,22.80
2009,07,21,15,21,22.90
2009,07,21,15,22,23.00
2009,07,21,15,23,23.10
2009,07,21,15,24,23.20
2009,07,21,15,25,23.30
2009,07,21,15,26,23.30
2009,07,21,15,27,23.30
2009,07,21,15,28,23.30
2009,07,21,15,29,23.30
2009,07,21,15,30,23.40
2009,07,21,15,31,23.40
2009,07,21,15,32,23.50
2009,07,21,15,33,23.50
2009,07,21,15,34,23.50
2009,07,21,15,35,23.50
2009,07,21,15,36,23.60
2009,07,21,15,37,23.50
2009,07,21,15,38,23.40
2009,07,21,15,39,23.40
2009,07,21,15,40,23.50
2009,07,21,15,41,23.60
2009,07,21,15,42,23.60
2009,07,21,15,43,23.50
2009,07,21,15,44,23.50
2009,07,21,15,45,23.50
2009,07,21,15,46,23.50
2009,07,21,15,47,23.50
2009,07,21,15,48,23.60
2009,07,21,15,49,23.60
2009,07,21,15,50,23.70
2009,07,21,15,51,23.80
2009,07,21,15,52,23.80
2009,07,21,15,53,23.80
2009,07,21,15,54,23.80
2009,07,21,15,55,23.90
2009,07,21,15,56,24.00
2009,07,21,15,57,24.10
2009,07,21,15,58,24.20
2009,07,21,15,59,24.20
2009,07,21,16,00,24.30
2009,07,21,16,01,24.30
2009,07,21,16,02,24.40
2009,07,21,16,03,24.40
2009,07,21,16,04,24.40
2009,07,21,16,05,24.40
2009,07,21,16,06,24.40
2009,07,21,16,07,24.40
2009,07,21,16,08,24.40
2009,07,21,16,09,24.30
2009,07,21,16,10,24.30
2009,07,21,16,11,24.30
2009,07,21,16,12,24.30
2009,07,21,16,13,24.40
2009,07,21,16,14,24.50
2009,07,21,16,15,24.60
2009,07,21,16,16,24.60
2009,07,21,16,17,24.80
2009,07,21,16,18,24.90
2009,07,21,16,19,24.90
2009,07,21,16,20,25.00
2009,07,21,16,21,25.00
2009,07,21,16,22,25.00
2009,07,21,16,23,25.00
2009,07,21,16,24,25.10
2009,07,21,16,25,25.10
2009,07,21,16,26,25.10
2009,07,21,16,27,25.20
2009,07,21,16,28,25.20
2009,07,21,16,29,25.10
2009,07,21,16,30,25.10
2009,07,21,16,31,25.00
2009,07,21,16,32,25.00
2009,07,21,16,33,25.00
2009,07,21,16,34,25.00
2009,07,21,16,35,25.00
2009,07,21,16,36,25.10
2009,07,21,16,37,25.00
2009,07,21,16,38,25.00
2009,07,21,16,39,25.00
2009,07,21,16,40,25.00
2009,07,21,16,41,25.10
2009,07,21,16,42,25.10
2009,07,21,16,43,25.10
2009,07,21,16,44,25.10
2009,07,21,16,45,25.10
2009,07,21,16,46,25.10
2009,07,21,16,47,25.20
2009,07,21,16,48,25.20
2009,07,21,16,49,25.20
2009,07,21,16,50,25.30
2009,07,21,16,51,25.30
2009,07,21,16,52,25.40
2009,07,21,16,53,25.40
2009,07,21,16,54,25.40
2009,07,21,16,55,25.40
2009,07,21,16,56,25.40
2009,07,21,16,57,25.40
2009,07,21,16,58,25.40
2009,07,21,16,59,25.40
2009,07,21,17,00,25.40
2009,07,21,17,01,25.40
2009,07,21,17,02,25.40
2009,07,21,17,03,25.40
2009,07,21,17,04,25.50
2009,07,21,17,05,25.50
2009,07,21,17,06,25.60
2009,07,21,17,07,25.70
2009,07,21,17,08,25.70
2009,07,21,17,09,25.70
2009,07,21,17,10,25.70
2009,07,21,17,11,25.70
2009,07,21,17,12,25.80
2009,07,21,17,13,25.80
2009,07,21,17,14,25.80
2009,07,21,17,15,25.90
2009,07,21,17,16,25.90
2009,07,21,17,17,26.00
2009,07,21,17,18,26.10
2009,07,21,17,19,26.20